Tracking 29594 objects as of 20-Sep-2024
HD Live streaming from Space Station
objects crossing your sky now

ARIANE 5 R/B

Track ARIANE 5 R/B now!


NORAD ID: 25990
Int'l Code: 1999-066B
Perigee: 11,666.0 km
Apogee: 100,989.4 km
Inclination: 69.9 °
Period: 2,604.0 minutes
Semi major axis: 62698 km
RCS: 6.3096 m2 (large)
Launch date: December 10, 1999
Source: France (FR)
Launch site: FRENCH GUIANA (FRGUI)

Note: This is a ROCKET BODY
Your satellite tracking list
Your tracking list is empty




NASA's NSSDC Master Catalog

Two Line Element Set (TLE):
1 25990U 99066B   24264.52553423 -.00000086  00000-0  00000-0 0  9997
2 25990  69.8975 315.9919 7123225 109.9809   0.2051  0.55298688 21839
Source of the keplerian elements: AFSPC